{"data":{"norad_id":54088,"intl_designator":"2022-136AP","name":"STARLINK-5153","alt_names":[],"object_type":"PAYLOAD","status":"ACTIVE","operator":null,"country":"US","launch_date":"2022-10-20","launch_site_code":"AFETR","launch_vehicle":null,"mission":null,"orbit_class":"UNKNOWN","rcs_meters":null,"size_class":null,"mass_kg":null,"dimensions":null,"purposes":["comms"],"wikipedia_slug":null,"has_3d_model":false,"image_url":null,"decayed_at":null,"tle_current":{"epoch":"2026-09-20T22:00:03.000096Z","epoch_age_seconds":53878,"freshness":"FRESH","line1":"1 54088U 22136AP  26263.91670139  .00022589  00000+0  70541-3 0  9999","line2":"2 54088  53.1605 175.4152 0001524 107.5948 124.8285 15.33125099  5708","mean_motion":15.33125099,"eccentricity":0.0001524,"inclination_deg":53.1605,"raan_deg":175.4152,"arg_perigee_deg":107.5948,"mean_anomaly_deg":124.8285,"bstar":0.00070541,"rev_number":570,"period_min":93.925799071404,"perigee_km":465.45201834436,"apogee_km":467.53826222072,"semimajor_km":6844.6321402825,"source":"CELESTRAK","updated_at":"2026-09-21T09:00:33.082758Z"}}}